Location: Festilli
(46.4000°N, 11.6667°E)
Time: 13:31:35
(UTC+00:00)

COSMO-SKYMED 1 - Pass Details

Date: 03 March 2021
Orbit: 621 x 623 km, 97.9° (Epoch: 15 April)

Event Time Altitude Azimuth Distance (km) Brightness Sun altitude
Rises 17:43:48 0° 9° (N) 2,916 5.9 -7.9°
Reaches altitude 10° 17:46:01 10° 6° (N) 2,005 5.1 -8.3°
Maximum altitude 17:50:18 59° 288° (WNW) 723 3.3 -9.1°
Drops below altitude 10° 17:54:34 10° 209° (SSW) 1,988 5.5 -9.8°
Sets 17:56:45 0° 205° (SSW) 2,889 6.3 -10.2°
